Wind_Speed
13 15 16 16 17 18 20 20 21 22 23 24 25 26 26 27 27 28 29 29 31 30 30 32 30 28 31 33 32 31 31 32 32 31 31 32 32 32 33 34 35 36 37 37 37 38 39 40 41 41 41 42 42 42 43 43 43 44 45 45 46 47 48 49 50 50 50 50 50 50 51 51 52 52 53 55 57 59 61 61 62 64 66 69 70 69
14 16 18 18 19 21 22 23 23 24 25 26 27 28 28 29 29 30 31 31 32 32 31 34 32 27 29 33 33 32 31 32 33 33 32 32 33 33 33 34 35 37 38 39 39 39 39 41 42 42 42 42 42 42 43 43 44 44 45 46 47 47 48 50 50 50 50 50 51 51 51 52 52 53 54 56 57 59 61 62 63 65 68 69 67 65
15 17 18 20 21 22 23 24 26 27 28 28 29 30 31 31 32 31 32 33 34 34 33 36 34 27 26 30 33 34 33 32 34 34 34 34 34 33 34 34 36 37 38 40 41 40 40 41 42 42 43 43 43 43 43 43 44 45 46 47 48 48 49 50 51 51 50 51 51 52 52 53 53 54 55 57 59 60 61 62 64 67 68 67 63 62
17 18 19 21 22 24 25 26 28 29 30 31 31 32 33 33 34 34 34 34 35 35 35 37 38 31 25 26 32 36 35 34 35 34 35 35 34 34 34 34 36 37 38 39 41 42 41 41 42 43 43 43 44 44 44 44 44 45 46 47 49 49 50 50 51 51 51 51 52 52 53 54 54 55 56 58 59 61 63 64 65 67 66 63 61 61
19 20 21 23 24 26 27 28 29 31 31 32 33 34 35 35 36 37 37 37 36 36 35 37 40 36 29 27 32 37 37 36 36 35 35 35 34 35 34 34 36 37 39 40 42 43 43 42 42 43 44 44 44 45 44 44 45 45 46 47 49 50 51 51 51 51 51 51 52 53 53 54 55 55 57 58 60 62 63 65 66 66 63 60 60 61
22 23 24 26 27 28 29 31 32 32 33 34 35 36 37 37 37 38 39 39 39 39 37 38 42 40 34 32 35 39 39 38 38 37 37 36 36 36 36 36 36 37 39 41 43 44 44 43 43 43 44 45 45 46 46 46 46 46 46 48 49 51 51 51 50 50 50 51 52 53 53 54 55 56 57 58 60 62 64 65 66 64 60 59 60 60
24 25 26 28 29 31 32 33 34 34 35 36 36 37 38 38 39 39 40 41 41 41 40 40 42 43 38 34 36 41 41 40 40 39 38 38 38 39 38 37 37 38 40 43 44 44 45 44 44 44 44 45 46 47 47 47 47 46 47 48 49 51 52 51 50 50 50 51 52 53 53 54 55 56 57 59 60 63 64 65 64 61 58 58 59 61
27 27 29 31 32 33 34 35 36 37 37 38 38 39 40 40 40 41 41 41 42 43 42 40 40 44 41 36 37 42 43 42 41 40 40 41 41 40 40 39 39 40 42 44 45 46 46 45 45 45 46 46 47 47 48 48 48 47 47 48 49 51 52 51 50 49 50 50 51 52 53 54 55 56 57 59 61 62 64 63 62 59 58 58 60 61
29 30 32 33 34 35 36 37 38 39 39 39 40 41 41 42 42 42 42 42 43 44 44 41 41 44 43 38 39 42 43 43 42 42 44 43 42 42 42 42 41 42 42 44 46 46 47 47 46 47 47 48 48 48 48 49 49 49 48 48 49 51 52 51 50 50 50 50 51 52 53 54 54 56 57 59 61 62 62 61 59 58 58 58 60 62
31 33 35 36 36 37 38 39 40 41 41 41 42 42 42 42 42 43 43 44 45 45 44 43 43 46 44 40 40 43 43 43 43 44 45 45 43 43 44 44 44 44 44 44 45 45 47 48 48 48 49 49 49 49 49 49 50 49 49 49 50 51 52 51 50 49 50 50 50 51 52 53 54 55 57 58 60 61 61 59 58 58 58 59 60 62
34 35 36 37 38 39 40 41 41 42 42 42 43 43 43 43 43 44 44 44 45 45 45 45 45 48 47 42 41 43 44 44 44 44 44 44 44 44 45 46 46 46 46 44 43 44 46 48 49 49 49 51 51 50 49 50 50 50 50 50 50 51 52 51 49 49 49 49 50 51 51 52 53 54 56 57 58 59 59 57 57 57 58 59 60 61
35 36 37 38 39 40 40 41 41 41 42 42 43 44 45 45 45 46 46 46 47 46 47 48 47 48 49 45 41 43 46 45 43 41 42 43 44 46 47 48 48 48 47 45 44 43 45 48 49 50 50 51 52 52 51 50 51 50 50 50 51 52 52 50 48 48 48 48 49 50 51 52 52 54 55 56 57 58 56 55 56 57 58 60 60 61
35 36 37 38 39 40 41 42 42 41 42 42 43 45 46 47 47 48 47 47 48 48 48 49 49 49 48 46 43 45 47 43 38 39 42 45 47 49 50 51 50 49 48 48 47 45 45 48 49 50 50 51 53 53 52 52 51 51 51 51 51 51 51 50 48 47 47 48 49 49 50 51 51 53 54 55 56 56 54 54 55 57 58 59 60 61
36 38 39 40 41 42 43 44 44 44 44 45 45 47 48 48 49 49 49 48 49 50 50 50 51 50 49 47 45 46 44 38 36 40 44 46 49 51 54 55 52 49 49 50 49 47 46 48 49 50 51 52 53 54 54 53 53 53 53 53 52 52 51 49 47 47 47 48 49 49 50 50 50 52 53 54 55 54 53 53 54 56 58 59 60 61
40 41 42 44 45 45 46 45 45 46 47 47 47 48 49 48 49 49 49 50 50 50 52 52 52 51 50 47 45 44 40 35 38 44 46 46 49 52 55 55 52 50 51 52 50 48 48 49 50 50 51 53 54 54 55 55 54 54 54 54 53 52 51 49 47 47 48 49 49 49 49 49 49 51 52 53 53 52 51 52 53 55 57 58 59 60
44 44 45 46 47 47 47 47 48 49 49 50 50 49 49 48 49 49 49 49 50 51 53 54 54 53 51 48 45 42 38 37 43 49 50 50 50 50 51 50 50 51 51 51 50 49 49 50 50 50 51 53 54 55 56 56 56 56 56 55 55 53 52 50 49 49 49 49 49 49 49 48 48 50 51 51 52 51 50 51 52 54 55 57 58 60
45 45 46 47 47 48 49 50 50 51 51 52 51 49 48 48 49 49 50 50 51 53 55 56 56 55 50 48 46 42 40 44 50 54 55 54 49 46 46 47 48 49 48 48 49 50 50 50 50 50 51 53 54 55 56 57 57 57 57 57 55 54 53 52 51 50 50 50 50 49 49 48 47 49 50 50 50 49 49 50 51 53 54 55 57 59
44 43 43 45 46 48 49 50 50 51 51 51 50 48 48 49 48 50 52 53 52 54 56 55 55 54 49 48 46 44 46 51 54 55 55 52 49 48 48 48 47 46 46 47 48 50 50 49 49 50 52 53 54 55 56 56 57 57 57 57 56 55 55 54 53 52 52 51 51 50 49 47 46 48 49 49 49 48 47 48 50 51 53 54 56 58
44 44 43 45 47 47 48 49 49 50 49 49 47 46 46 47 47 48 50 53 53 54 55 53 51 49 46 47 47 45 50 54 54 53 52 52 52 53 52 50 48 47 47 48 48 49 49 49 50 51 53 54 54 55 56 57 57 58 58 57 57 56 56 55 54 53 53 52 52 51 50 47 46 46 47 47 47 47 46 47 49 50 52 53 55 57
45 46 45 45 46 47 48 48 48 49 48 47 45 43 43 44 46 46 47 49 50 52 53 51 49 45 41 44 48 48 50 53 52 52 51 51 53 54 53 53 51 49 48 48 48 48 49 50 51 53 54 54 55 56 56 57 57 58 58 58 58 57 57 56 56 55 54 54 53 52 50 47 45 45 46 46 46 46 45 46 47 49 51 52 54 56
45 47 47 46 46 47 47 47 47 47 46 45 43 43 43 44 46 47 46 45 46 48 50 49 49 45 39 40 46 46 47 48 50 50 48 48 50 51 52 52 51 51 49 48 48 48 49 50 51 53 54 54 55 56 56 57 57 58 59 59 58 58 58 58 57 57 56 55 54 53 51 46 44 44 44 44 45 45 44 45 47 48 50 52 54 56
46 48 48 48 47 46 45 44 43 42 41 41 41 41 42 43 44 46 47 45 45 47 47 48 50 47 40 41 45 45 46 47 48 49 48 48 49 50 51 52 52 52 51 51 51 51 51 52 52 53 54 54 56 56 57 57 57 58 59 60 59 59 59 59 59 58 57 56 55 53 50 45 43 43 42 43 44 44 43 44 46 48 49 51 53 55
47 48 48 48 46 44 43 42 40 39 39 40 40 40 41 43 44 46 49 49 48 48 48 50 53 49 43 44 47 46 47 48 49 50 50 50 50 51 51 52 53 54 55 56 57 57 57 56 55 54 54 55 57 58 59 59 59 59 59 60 60 60 60 61 61 61 60 58 55 52 48 44 43 42 41 43 43 43 43 44 46 47 49 51 53 55
47 48 49 48 45 43 43 43 42 41 39 40 40 41 42 44 46 48 50 51 50 48 49 52 55 52 47 46 48 48 49 50 51 52 52 52 52 52 53 54 55 56 57 58 58 58 57 57 55 55 54 55 57 57 58 60 61 61 60 61 61 61 62 63 63 62 60 56 54 50 45 43 42 41 40 42 43 43 43 44 45 47 49 50 52 54
46 48 49 48 46 45 45 45 44 43 41 41 42 42 43 44 46 47 48 50 50 49 49 52 55 53 49 47 47 47 48 49 50 50 51 53 54 54 54 54 55 56 57 57 57 56 56 55 55 55 55 56 56 55 54 55 57 58 59 59 59 60 60 59 58 57 54 53 51 47 43 42 41 39 40 42 42 43 44 44 45 47 48 50 52 54
44 45 46 47 47 46 46 45 44 43 41 40 41 42 43 43 44 45 46 48 50 50 48 50 52 52 49 48 47 46 47 48 49 50 51 52 54 55 55 55 55 57 58 58 58 58 58 58 58 57 57 57 57 57 55 54 53 54 54 54 54 54 54 53 52 52 51 51 49 44 41 41 40 38 39 41 42 43 44 45 46 47 48 50 52 54
42 43 43 44 43 42 43 43 42 42 41 40 40 41 42 43 43 44 44 44 46 48 46 46 49 52 51 49 50 49 49 50 51 51 52 52 53 54 55 56 56 57 58 58 58 58 58 58 59 59 59 59 58 58 56 54 53 53 52 52 52 52 51 50 50 49 49 49 46 41 40 40 39 37 39 41 42 43 44 46 47 47 48 50 51 53
41 41 41 42 40 38 40 41 40 41 41 41 42 42 43 43 43 42 42 43 45 47 47 45 46 49 49 49 49 49 50 51 51 51 51 52 53 53 53 54 54 55 56 56 57 57 57 57 57 57 58 58 58 57 55 53 52 51 51 50 50 50 49 48 47 46 45 44 41 40 40 39 37 37 39 41 42 44 45 47 48 48 49 50 51 53
41 40 40 41 39 37 39 40 39 40 40 41 43 44 43 43 42 42 43 44 45 47 48 47 46 46 47 48 49 49 50 51 51 51 51 52 52 52 52 52 52 53 53 54 55 56 57 57 57 57 57 57 57 55 53 51 49 48 47 47 48 48 47 46 44 43 41 40 39 40 40 39 38 38 40 41 43 44 45 47 49 49 49 50 51 53
41 41 41 41 39 37 39 40 39 40 40 41 42 43 43 43 43 44 45 45 46 47 48 49 48 47 48 50 51 51 50 51 52 52 52 53 53 54 53 54 54 54 55 55 55 55 56 56 57 57 58 57 57 56 54 52 50 49 48 47 46 46 45 43 42 41 40 39 40 41 41 40 39 39 41 43 44 45 46 48 49 50 50 51 51 53
42 43 43 43 41 39 40 42 42 42 42 42 42 44 44 43 44 46 47 47 48 48 49 50 51 50 49 51 53 53 52 52 53 53 53 53 54 54 54 54 55 55 55 56 56 56 56 56 56 57 57 57 58 58 57 56 54 52 51 49 47 46 44 43 43 42 41 41 42 42 42 42 40 40 43 45 45 46 47 48 50 51 52 51 51 52
44 45 45 45 44 42 42 43 44 44 44 44 46 46 45 45 46 47 48 48 49 50 51 52 52 52 51 52 53 53 52 53 54 54 54 54 54 55 54 54 54 54 54 54 55 55 56 56 56 56 56 56 56 57 58 57 56 55 53 51 50 48 45 44 44 44 44 43 44 44 44 43 42 42 44 46 47 48 48 48 50 51 52 52 52 52
47 48 47 47 47 45 44 45 45 45 46 47 49 49 48 47 47 48 49 49 50 51 52 54 54 53 53 53 54 54 53 53 54 55 56 57 57 57 56 56 56 55 55 54 54 54 54 55 55 55 55 55 54 55 56 56 56 56 54 53 52 50 47 46 47 47 47 47 47 46 45 45 44 45 47 48 49 49 49 49 49 51 52 52 52 52
49 50 49 50 50 49 48 48 47 47 48 50 51 52 51 50 49 49 50 50 51 51 53 54 55 55 55 56 56 56 56 55 56 57 58 60 60 60 60 60 60 59 58 57 56 55 55 54 54 54 54 54 54 53 53 54 54 54 54 54 53 51 49 47 47 49 50 51 51 50 49 48 47 47 48 49 51 52 50 48 48 50 51 52 52 52
51 52 52 52 53 53 53 53 52 50 50 52 53 54 54 53 52 52 52 51 51 54 54 55 56 57 58 58 59 60 60 59 59 60 62 64 64 64 64 64 63 63 62 61 60 58 57 55 54 54 54 54 55 55 54 53 53 53 54 54 53 51 50 49 48 49 51 52 52 52 52 51 49 48 48 50 52 54 53 50 48 48 50 50 50 51
53 54 54 55 55 55 56 57 57 55 53 53 56 58 58 58 57 58 58 55 54 57 59 59 59 60 60 61 62 63 63 63 62 64 67 69 69 68 68 68 68 67 66 66 65 63 61 59 57 57 56 56 56 56 55 54 54 54 54 55 54 53 52 50 49 49 51 52 52 53 53 52 50 49 50 51 52 52 53 51 48 48 49 50 49 49
54 56 57 57 58 58 59 59 59 59 57 56 58 60 61 61 62 63 65 63 60 62 64 64 65 65 65 65 66 67 68 68 66 66 68 70 70 70 71 71 71 70 69 69 69 68 67 65 62 61 61 60 60 60 59 57 56 56 56 57 57 56 54 52 51 50 50 51 52 54 55 55 54 53 53 53 52 51 52 51 49 48 49 49 49 47
54 56 58 59 60 60 61 62 62 63 61 57 56 59 61 63 65 66 69 69 68 68 70 70 71 71 71 72 72 72 73 73 71 70 70 70 70 71 71 71 72 72 72 71 71 71 70 69 67 65 64 63 63 63 62 61 59 58 58 59 59 59 57 55 54 53 51 50 51 53 55 57 58 57 56 55 52 51 52 52 50 48 49 49 48 45
55 56 58 60 62 62 62 63 63 65 62 57 55 58 62 65 68 69 71 73 72 73 75 75 76 77 78 78 78 78 78 78 77 75 74 74 73 73 73 73 74 74 74 74 74 74 73 72 70 68 67 66 66 66 66 64 62 61 61 61 61 61 60 58 56 55 53 52 51 51 52 54 56 58 58 57 54 52 51 52 51 48 48 48 44 42
56 57 59 61 63 63 63 63 64 65 63 58 57 61 65 68 71 72 73 75 75 76 77 78 80 82 83 83 82 82 82 83 83 82 81 80 79 78 77 77 76 76 76 76 75 75 75 75 74 72 70 69 69 69 68 67 66 64 64 63 63 62 62 60 58 57 55 54 53 51 51 52 53 54 55 55 54 51 50 50 50 47 46 43 38 39
57 58 60 62 63 64 64 65 66 67 64 61 63 66 69 71 72 73 75 78 79 79 81 82 83 85 86 87 87 86 86 87 88 88 87 86 85 83 82 81 80 79 78 78 77 77 78 78 77 75 74 73 72 71 71 69 68 68 66 66 65 64 63 62 60 58 56 55 54 53 51 51 51 51 51 51 52 50 48 48 47 47 46 40 34 40
58 59 62 63 64 65 65 67 69 68 66 65 68 69 71 73 75 76 79 81 81 82 84 86 86 87 89 90 90 90 90 89 89 89 88 88 87 87 86 85 84 82 81 80 79 79 80 80 80 78 77 75 74 74 73 71 70 70 69 67 66 65 64 63 61 58 56 55 55 54 53 51 50 49 49 49 49 48 47 46 46 47 44 38 35 42
56 58 62 64 66 66 67 68 69 67 67 69 71 72 74 76 78 80 82 83 84 86 87 88 89 90 92 92 92 92 92 91 90 89 88 87 87 87 86 86 86 85 84 83 82 81 81 82 81 80 78 77 76 77 77 76 73 72 71 70 68 67 65 64 62 59 56 55 55 54 53 51 50 49 48 47 48 47 46 46 46 45 43 39 38 43
55 57 61 65 66 67 68 69 67 66 68 70 72 74 76 79 81 84 86 87 88 90 91 92 93 94 94 95 95 94 93 92 91 90 89 88 88 88 88 87 87 87 86 85 84 83 82 82 82 81 79 77 76 77 78 78 77 76 74 73 72 70 67 65 63 60 57 55 54 53 52 51 50 48 47 46 46 46 45 45 45 43 42 41 41 41
56 59 63 66 67 67 68 67 66 68 71 72 75 78 80 83 85 87 88 90 92 93 94 96 96 96 96 96 95 94 93 92 91 91 91 91 90 89 88 87 87 87 86 85 84 84 83 82 82 83 81 80 78 78 77 77 77 77 75 73 72 71 69 66 63 60 58 55 53 52 51 50 49 48 47 46 45 45 44 44 43 41 40 39 37 36
60 63 66 68 68 68 69 68 69 73 74 75 79 82 84 86 88 89 91 93 95 96 97 97 97 96 95 93 92 92 92 93 93 93 92 91 90 88 87 87 88 88 87 86 85 85 84 84 83 83 84 84 82 81 80 78 77 76 76 74 72 71 69 66 62 59 56 53 51 51 49 48 48 47 46 46 45 43 42 41 40 38 36 35 33 32
64 66 67 69 71 72 73 73 75 77 78 79 83 86 87 89 90 92 94 95 97 98 98 96 95 93 91 90 91 92 93 93 93 92 90 89 90 90 90 91 90 90 90 89 88 88 88 87 87 87 87 87 85 84 82 79 77 76 75 74 72 71 69 65 61 56 52 50 49 49 48 47 46 45 45 45 44 42 39 38 36 35 33 32 31 32
68 69 69 72 74 75 77 78 80 81 81 84 87 89 91 93 95 97 98 99 99 99 97 96 94 91 90 90 91 92 93 92 91 91 91 92 93 94 94 94 94 94 95 94 94 94 93 92 91 90 90 89 88 87 85 82 79 77 75 74 73 70 66 62 57 52 48 46 46 46 46 45 45 44 43 43 42 39 37 35 34 33 31 31 31 33
71 73 74 76 77 78 80 83 85 86 86 86 88 91 94 97 100 101 102 102 101 100 98 96 93 90 90 91 91 91 91 90 91 93 95 96 97 97 98 98 99 100 100 101 101 101 100 98 97 96 95 94 93 92 89 85 82 80 78 77 75 72 65 58 53 48 44 43 43 44 44 44 44 43 42 41 39 37 35 34 32 31 31 31 32 34
75 77 79 80 82 83 85 88 90 92 93 93 95 98 100 102 103 104 105 104 102 99 96 94 92 91 90 88 88 91 93 94 96 98 100 101 101 101 101 101 101 102 102 101 101 101 102 102 101 100 99 97 97 96 96 94 91 89 86 83 81 77 70 61 54 47 43 42 42 42 42 43 43 42 41 39 36 35 33 32 31 30 31 32 33 35
79 81 82 84 86 88 90 92 93 96 98 100 102 104 105 105 105 105 104 101 98 95 93 92 93 92 90 90 92 96 99 101 102 102 102 101 100 98 97 96 95 94 92 90 88 89 91 92 91 88 85 83 82 81 82 82 82 82 82 83 82 81 76 69 60 52 45 41 41 41 41 42 42 41 39 37 35 33 32 31 30 31 31 32 34 35
Wind_Direction
310 309 308 307 307 304 303 304 305 306 306 306 306 306 307 307 308 308 309 309 309 311 312 312 315 316 314 315 316 317 319 320 320 321 321 321 321 320 320 319 319 319 319 320 320 319 318 318 318 318 317 317 316 315 314 314 313 313 312 311 310 309 307 306 306 306 308 309 311 312 314 315 315 316 317 317 318 318 317 317 316 315 316 318 320 321
313 311 310 308 306 304 304 304 304 304 304 304 305 305 305 305 306 307 307 307 306 308 310 309 313 317 314 314 314 315 318 318 317 319 319 318 318 317 317 316 316 316 317 317 318 318 316 316 316 316 315 315 314 313 312 311 310 310 309 309 308 307 306 305 305 306 308 309 311 312 313 315 316 316 317 318 318 318 318 317 316 316 317 319 321 321
313 311 310 307 307 307 306 305 304 304 304 304 304 303 303 304 303 304 304 305 305 306 308 307 310 317 316 313 312 313 317 317 316 317 317 316 316 315 313 313 313 313 313 314 315 316 315 314 314 315 314 313 312 311 310 309 308 307 307 307 306 306 305 304 304 306 307 309 311 312 314 315 316 317 319 320 320 319 318 317 317 318 319 321 322 323
314 313 312 311 312 311 309 308 306 305 304 303 303 302 302 302 302 302 301 303 304 305 308 306 307 315 318 314 311 312 315 316 315 315 314 314 314 312 310 309 309 310 311 311 311 313 315 313 313 312 312 311 310 309 308 307 306 305 305 305 305 304 304 304 304 306 308 310 311 313 314 316 317 319 320 321 320 320 319 318 318 320 321 323 324 324
317 316 315 315 314 313 311 310 307 306 305 304 303 302 301 301 301 301 301 301 302 304 308 307 306 311 316 315 312 311 314 314 312 313 313 313 311 309 307 306 306 307 308 308 309 311 312 312 311 310 310 309 308 307 306 305 304 304 304 304 303 303 303 303 304 306 308 310 311 313 315 316 318 320 321 321 321 320 319 319 320 322 323 324 325 326
317 316 315 314 314 313 311 309 307 306 305 304 303 302 301 301 300 301 301 301 302 304 307 309 307 308 314 317 313 311 312 312 311 311 311 310 309 308 307 304 305 305 305 307 308 309 310 311 310 309 308 307 306 306 305 304 304 303 303 303 302 302 302 303 305 307 309 310 311 313 315 316 318 319 320 321 320 320 319 320 322 323 324 326 327 328
316 315 314 313 312 311 309 308 307 306 305 304 303 303 302 302 302 302 302 303 305 306 310 313 311 309 314 317 312 310 311 310 310 310 309 308 308 308 307 303 303 304 304 307 309 309 309 309 309 307 306 306 305 305 304 304 304 303 303 302 301 301 302 303 305 307 309 310 311 313 314 316 318 319 319 320 320 320 320 322 323 324 325 327 328 329
315 314 313 312 311 310 309 308 308 307 306 306 305 304 304 304 304 304 304 305 306 307 310 313 312 311 315 316 310 309 310 309 309 309 307 306 307 307 306 302 301 302 304 307 308 309 309 309 307 306 306 305 304 304 303 303 303 303 303 302 302 301 302 304 306 308 309 310 311 313 314 316 318 319 320 320 319 320 322 323 324 324 326 328 329 330
314 313 312 312 312 311 311 310 310 309 309 309 308 307 307 307 307 306 306 307 307 308 310 312 311 310 315 318 312 310 310 308 309 308 306 306 306 306 304 301 300 302 306 308 308 309 309 308 306 305 305 304 303 303 303 303 303 303 303 303 302 302 303 305 307 308 309 310 311 313 314 316 318 319 320 320 320 320 322 323 324 324 326 329 329 330
314 314 314 313 313 313 313 313 313 313 312 312 311 310 310 309 309 308 308 309 308 309 310 311 310 310 314 317 315 313 310 309 309 307 305 305 305 304 303 301 303 305 308 310 309 307 306 305 304 304 303 303 303 303 303 303 303 303 304 304 304 304 304 306 308 308 309 309 311 312 314 316 318 319 320 320 320 321 323 323 324 325 327 329 330 330
317 316 316 316 317 316 316 316 316 316 316 315 313 312 311 310 309 308 308 308 307 308 309 310 311 312 314 318 318 315 312 311 309 306 304 303 303 303 303 303 305 307 309 310 308 305 302 301 301 301 301 301 302 302 302 302 303 304 305 305 305 305 306 307 308 308 308 309 311 312 314 316 317 319 319 319 320 321 323 323 324 325 327 329 330 330
320 320 320 320 320 319 319 318 318 318 317 316 314 313 311 310 309 308 308 308 308 309 310 310 311 312 314 318 319 316 313 312 309 305 303 302 302 303 303 304 306 308 309 309 307 303 299 298 299 300 300 300 301 301 302 303 303 305 306 307 307 306 307 308 308 308 308 309 310 312 313 315 317 318 319 319 320 321 322 323 324 326 327 329 330 330
323 323 322 321 321 320 319 318 317 316 315 314 314 313 312 311 309 309 309 309 309 308 308 309 309 311 313 317 318 316 314 311 307 304 302 301 301 301 301 304 308 310 308 307 306 303 299 298 298 298 298 298 299 301 302 303 304 305 307 308 308 308 308 308 308 307 308 308 309 311 312 314 316 318 318 319 320 321 322 323 324 326 327 328 329 330
321 322 321 320 319 318 318 317 316 315 314 314 313 312 312 312 310 308 307 307 306 306 306 306 307 309 311 314 316 315 313 310 304 300 299 300 300 300 302 307 311 311 308 306 306 304 301 299 299 298 298 298 299 300 302 304 305 306 307 308 308 308 308 309 308 307 307 308 308 310 311 313 315 316 317 318 320 320 321 322 324 326 327 328 329 330
319 321 321 319 318 318 317 316 315 314 313 312 311 310 310 310 309 308 307 306 305 303 303 304 305 307 309 311 313 311 310 309 301 296 297 299 299 301 305 309 310 308 307 307 306 305 303 301 299 298 297 297 299 300 302 303 304 305 306 307 308 308 308 309 308 307 307 307 308 309 309 311 313 315 316 317 318 319 320 322 324 326 327 328 329 329
318 320 320 319 318 317 315 314 312 311 310 309 308 308 308 307 306 306 305 304 303 301 301 302 302 304 306 309 309 307 308 306 298 296 299 302 303 305 307 307 306 306 306 306 305 303 302 300 299 297 296 297 298 300 301 302 304 305 305 306 307 308 308 308 308 308 307 307 307 308 308 310 312 313 315 316 317 318 319 322 324 325 326 327 328 329
319 320 321 319 316 314 312 311 310 310 309 308 308 308 307 306 305 304 303 303 303 302 302 302 303 305 308 308 306 305 303 299 297 300 304 307 308 308 306 305 305 305 305 304 302 301 300 299 297 296 295 296 298 299 300 301 303 304 305 306 307 308 308 308 309 308 307 307 306 306 306 308 310 311 313 314 315 316 319 321 323 324 326 327 328 329
325 325 325 321 318 316 314 312 311 310 309 309 309 309 308 307 306 305 305 305 305 304 304 306 307 310 313 310 305 303 300 298 300 305 307 308 309 308 307 308 308 306 305 302 301 300 299 298 296 295 296 297 298 298 299 301 302 303 305 306 307 308 308 308 309 308 307 306 306 305 305 306 307 309 311 312 313 315 318 320 322 323 325 327 328 328
330 329 328 326 323 321 319 317 314 312 311 311 312 313 312 310 309 309 309 310 310 309 309 311 311 314 317 312 307 304 301 302 306 307 307 308 309 310 311 311 310 308 306 303 301 300 299 298 296 296 298 299 299 299 300 301 302 303 304 306 306 307 307 308 308 308 307 307 305 303 303 304 305 307 308 310 312 314 317 319 320 322 324 326 327 328
335 333 333 332 329 326 323 322 320 318 317 317 317 316 314 313 313 313 313 314 314 313 313 313 313 318 321 313 308 308 307 307 308 308 308 309 311 313 313 313 312 311 308 306 303 302 300 299 298 298 299 299 300 300 301 301 302 303 303 304 305 305 306 306 306 307 307 306 304 302 301 301 303 305 306 309 312 314 316 318 319 321 324 326 327 327
339 337 337 336 333 330 328 327 327 327 325 323 322 321 319 318 317 316 315 316 315 315 316 315 315 322 326 315 310 311 310 309 309 309 310 312 313 313 313 313 312 311 310 307 305 303 302 300 300 299 299 299 300 300 301 301 301 302 303 303 304 305 305 304 305 306 306 306 304 301 299 299 300 303 305 308 312 314 316 317 318 320 323 325 326 327
341 340 339 338 335 333 333 332 332 332 331 329 328 326 325 323 321 318 317 318 318 319 320 316 315 323 328 318 314 315 313 311 311 311 313 312 312 311 311 311 310 309 309 307 305 304 303 302 301 299 298 298 299 300 300 300 300 300 301 302 303 303 303 304 305 305 305 304 303 299 297 297 299 301 305 309 312 314 315 316 317 319 321 324 326 327
342 341 341 340 338 336 335 334 333 334 335 335 333 330 327 325 322 320 320 320 321 321 319 315 314 322 327 320 318 318 315 314 313 313 313 312 311 311 310 310 309 308 307 306 305 304 303 302 300 299 298 298 299 299 298 297 298 299 300 300 301 302 303 304 304 304 304 303 301 298 296 296 298 301 305 310 313 314 314 316 316 318 320 322 325 326
342 343 343 343 341 339 338 337 335 336 338 338 336 332 328 325 322 321 320 320 320 321 320 316 316 323 328 325 322 321 318 316 315 314 313 312 311 311 311 311 311 311 310 309 309 308 307 305 302 300 299 300 303 305 302 298 296 296 297 298 299 300 301 303 304 304 304 303 300 297 296 296 298 302 307 312 314 314 314 315 316 317 319 321 324 325
344 345 346 346 344 343 343 343 340 340 340 340 339 335 330 327 323 322 322 320 321 323 322 320 320 325 329 327 324 321 318 315 314 313 313 312 312 312 312 312 312 312 313 313 314 314 314 312 309 306 305 305 309 313 312 308 303 300 298 298 298 300 303 305 307 307 306 303 299 297 295 296 298 302 308 312 315 315 315 314 315 316 318 320 322 323
345 347 349 348 348 348 348 346 343 341 341 341 339 335 331 329 327 326 325 323 322 322 323 324 323 324 325 325 322 320 317 315 314 314 315 314 313 314 314 314 313 313 314 314 314 314 313 313 313 312 311 311 312 313 314 313 311 308 306 304 304 305 307 309 310 310 308 303 299 296 295 296 298 301 307 312 314 315 316 315 315 316 317 319 321 322
344 347 349 348 348 348 346 345 342 340 341 341 338 335 333 333 333 331 328 323 321 321 324 326 322 321 323 322 321 320 318 316 317 317 317 316 316 316 316 317 317 317 316 315 314 313 312 311 311 311 311 312 312 313 313 312 310 309 308 307 307 308 309 309 310 310 307 302 298 295 294 295 297 301 306 311 313 315 316 316 316 316 317 318 319 320
342 344 346 347 346 343 342 342 341 340 341 340 338 337 338 339 340 337 331 327 324 325 328 329 325 325 326 326 326 326 323 322 323 324 324 323 322 323 322 321 320 319 318 317 316 315 314 312 311 311 310 310 311 313 314 313 311 309 308 308 308 308 310 311 311 309 305 301 297 294 293 294 296 301 307 310 311 313 315 317 317 317 317 317 318 319
340 341 342 344 343 339 336 338 339 337 338 338 337 338 340 340 339 336 334 332 330 329 330 330 330 330 330 331 332 331 327 327 329 329 329 329 329 329 328 327 326 324 324 323 321 319 318 316 314 313 312 311 311 312 313 313 311 309 308 308 309 310 311 312 311 308 305 301 296 294 294 296 298 302 306 309 310 311 313 316 317 317 317 317 317 318
338 338 338 340 340 335 331 332 333 333 335 336 335 335 337 338 336 333 332 332 331 331 330 328 329 330 330 330 332 331 328 327 328 328 328 328 328 328 327 327 327 327 327 326 326 324 322 320 318 316 314 313 312 313 313 312 312 310 309 309 309 310 311 312 310 306 302 299 296 296 297 297 299 303 305 307 309 309 311 314 316 316 316 316 317 317
336 335 334 335 337 333 329 329 329 329 330 330 330 331 334 335 334 332 330 330 330 330 327 325 325 326 327 327 329 328 326 325 326 326 325 325 324 324 323 324 324 324 324 324 324 324 323 322 321 318 316 314 313 313 312 312 313 312 311 310 310 310 311 311 309 306 301 297 296 296 297 297 299 303 305 306 307 308 309 311 314 315 315 315 316 317
334 333 332 332 334 334 331 330 329 327 325 325 326 329 330 331 331 329 327 327 328 326 324 322 323 323 323 323 323 323 322 322 323 323 322 321 320 320 319 320 320 320 320 320 320 320 320 320 320 319 318 316 315 314 313 312 313 313 314 312 310 310 311 311 310 308 304 300 298 297 298 298 300 303 304 305 305 306 307 309 312 314 314 314 315 316
333 333 332 332 334 335 333 331 331 328 326 326 327 328 328 327 327 325 324 324 326 325 323 321 321 321 319 319 319 318 317 318 320 320 318 317 316 316 316 316 316 316 316 316 316 316 316 317 317 317 317 316 316 315 315 314 313 313 314 313 311 310 309 309 309 308 306 303 302 301 300 299 300 301 302 303 304 304 305 307 310 312 313 313 314 314
332 332 333 333 334 335 334 332 332 332 330 330 328 327 326 325 324 323 323 325 326 325 322 321 320 319 317 317 317 316 316 318 318 318 317 315 315 314 314 313 314 313 313 313 313 313 313 313 313 313 313 313 313 313 314 314 314 314 314 314 313 311 308 305 304 305 305 303 302 302 301 300 300 300 300 301 303 303 303 305 308 311 311 312 312 313
332 332 332 332 333 334 333 332 333 334 333 332 328 325 325 324 324 323 323 325 325 323 321 320 319 318 317 317 316 316 317 318 318 318 317 315 313 313 312 312 311 311 311 310 310 310 310 310 310 310 310 310 310 310 310 311 312 313 313 313 313 312 310 306 302 300 300 300 300 300 299 299 299 299 298 300 302 303 302 303 306 309 309 310 311 311
331 330 330 331 331 332 331 331 331 330 332 331 327 325 326 326 325 324 323 325 326 323 321 321 320 318 318 317 316 316 316 316 316 316 315 313 312 311 311 310 310 309 309 308 308 307 307 307 307 307 307 307 307 307 308 308 309 309 310 311 311 311 310 309 306 301 298 296 295 296 296 297 297 297 297 299 302 302 301 301 305 307 308 308 309 310
329 329 329 329 329 329 328 328 327 327 331 334 330 327 327 326 325 324 322 324 325 323 321 321 320 319 319 318 317 316 314 313 313 313 312 311 310 310 309 309 308 308 307 307 307 306 306 306 305 305 305 305 305 305 305 305 306 306 307 308 308 309 309 309 308 306 303 299 295 293 292 292 293 294 296 299 301 301 298 299 303 305 306 307 308 310
328 327 327 326 326 327 325 326 326 326 330 334 329 325 324 322 322 322 321 322 324 322 321 321 320 319 319 318 317 316 315 313 313 312 311 309 309 308 307 306 306 305 305 305 305 304 303 303 303 302 302 302 302 302 302 302 303 303 304 304 305 306 307 308 307 307 307 306 302 298 293 290 289 290 293 296 298 298 296 297 301 303 304 306 308 311
326 326 325 323 324 325 324 324 325 324 328 331 326 321 321 320 321 321 320 321 323 322 321 320 319 319 318 317 317 316 315 314 313 312 310 309 308 306 305 304 303 303 302 302 302 301 301 300 300 299 299 299 299 299 299 300 299 300 300 300 302 303 304 305 306 307 306 306 305 304 300 295 291 289 289 292 294 294 293 295 298 299 300 307 312 312
326 324 323 323 323 322 322 322 322 323 326 327 322 319 319 319 320 321 320 320 321 321 320 319 318 317 317 316 316 316 315 313 313 312 310 309 308 306 305 303 302 301 300 299 299 299 299 298 298 298 297 297 297 297 297 297 296 297 297 297 298 300 300 302 304 306 306 305 305 304 302 300 297 293 290 289 291 292 291 292 296 295 297 306 312 306
326 323 322 322 321 321 321 321 321 323 326 324 320 319 319 319 320 319 318 318 320 319 318 317 317 317 316 316 316 315 314 313 312 311 310 309 308 306 305 304 302 301 300 299 299 299 299 298 298 297 296 296 296 296 296 296 295 295 295 295 296 297 298 299 301 303 304 304 304 303 302 301 299 296 293 289 289 290 289 290 293 293 294 304 307 298
326 323 322 321 320 320 321 321 323 326 326 322 320 319 319 319 318 317 317 318 319 318 317 316 317 316 315 315 314 313 312 311 310 309 308 307 306 305 305 304 302 301 300 299 299 298 298 298 297 297 296 295 294 294 295 295 295 294 294 294 294 294 295 296 297 300 302 303 302 302 301 300 299 297 294 290 289 289 287 287 290 291 293 299 299 293
325 322 320 320 319 321 322 323 326 327 324 321 320 319 319 319 317 317 318 318 318 317 316 316 315 314 313 313 312 311 310 309 308 307 305 305 304 303 303 302 302 301 300 300 299 298 298 298 297 297 296 295 294 294 294 294 293 292 293 293 293 293 294 294 295 297 299 300 300 300 299 299 298 298 295 291 289 288 287 287 290 291 291 291 289 289
324 320 318 319 320 322 323 325 326 324 321 320 319 318 318 318 317 317 318 318 317 316 315 315 314 313 312 312 311 310 309 308 307 305 304 303 303 302 302 302 301 301 301 301 300 299 298 298 296 296 295 295 295 295 295 295 294 293 293 294 293 293 293 294 295 296 297 297 297 297 297 297 297 297 296 293 290 289 288 289 290 290 289 288 287 287
321 318 317 319 321 322 322 323 322 320 320 321 319 318 318 318 318 317 317 316 316 315 315 314 313 312 312 311 310 309 308 307 306 305 304 304 304 303 303 302 301 301 300 300 299 298 297 296 295 294 293 292 292 292 292 293 294 294 294 295 294 293 293 293 294 295 296 295 294 293 294 295 295 295 295 294 292 291 290 290 290 290 290 290 291 291
319 318 319 320 321 321 321 321 319 319 321 321 319 318 318 318 317 317 317 316 315 314 313 313 312 311 310 309 308 307 306 306 305 305 305 304 303 302 300 299 298 297 297 296 295 294 293 292 291 291 290 289 289 289 290 291 292 293 294 295 295 295 294 294 294 295 294 292 290 291 292 293 293 293 293 294 293 292 291 291 291 291 291 292 294 296
320 321 321 321 321 321 321 321 320 321 322 320 319 318 318 317 317 316 315 314 313 312 312 311 310 309 308 307 306 305 304 304 304 304 302 300 299 297 296 295 295 295 294 293 292 291 290 290 289 289 289 288 288 289 289 289 289 290 292 293 294 295 296 295 294 293 291 287 286 287 289 290 290 291 292 293 293 293 292 291 291 291 291 293 296 300
322 322 322 321 322 322 322 321 320 320 320 319 319 318 317 316 316 315 314 313 312 311 310 309 308 307 306 305 304 303 302 302 302 300 298 297 296 296 295 295 295 294 294 293 292 291 290 290 290 290 289 289 288 288 287 287 287 287 288 290 291 292 294 295 294 290 286 283 283 285 286 287 288 289 290 291 292 292 291 291 291 291 293 296 299 302
323 323 323 322 323 322 321 320 319 319 318 317 317 316 316 315 314 313 312 311 310 309 309 308 306 305 304 304 303 302 301 300 299 298 298 298 298 297 296 296 295 295 295 295 294 294 293 292 291 291 291 290 290 289 288 287 286 285 286 286 287 288 289 291 290 286 281 281 282 282 283 284 285 287 288 288 289 290 290 290 291 292 295 299 301 303
323 323 323 323 322 322 321 321 320 320 320 319 318 317 316 315 314 313 312 311 311 310 309 307 306 305 305 304 303 301 300 299 298 298 298 298 298 298 298 298 297 296 297 297 297 296 296 295 294 294 294 294 293 292 291 289 286 285 283 282 282 283 284 286 286 282 279 281 283 281 280 281 283 285 286 286 286 288 288 288 290 293 296 298 300 302
324 324 324 323 323 322 322 322 322 321 321 320 319 317 316 315 314 313 313 312 311 310 309 308 307 307 305 303 301 300 299 299 299 299 299 299 300 300 300 300 299 299 299 300 300 300 299 298 298 299 299 299 297 297 296 294 292 290 286 283 281 280 280 280 280 279 278 280 282 279 277 279 281 283 284 283 283 285 287 287 290 293 295 297 300 302
Height
5815 5814 5812 5810 5809 5807 5805 5803 5801 5799 5797 5794 5792 5790 5787 5785 5782 5779 5777 5774 5771 5769 5767 5763 5761 5760 5756 5752 5750 5747 5744 5741 5739 5736 5733 5730 5727 5724 5721 5718 5715 5711 5708 5705 5702 5699 5696 5693 5689 5686 5683 5679 5676 5672 5668 5665 5661 5657 5654 5651 5647 5643 5639 5636 5632 5628 5624 5620 5617 5613 5609 5605 5602 5598 5594 5590 5586 5581 5576 5571 5567 5562 5557 5552 5547 5542
5814 5813 5811 5809 5807 5806 5804 5801 5799 5797 5795 5792 5790 5787 5785 5782 5780 5777 5774 5771 5769 5767 5764 5760 5758 5757 5753 5750 5747 5744 5741 5738 5735 5733 5730 5727 5724 5721 5717 5714 5711 5707 5704 5701 5698 5696 5692 5689 5686 5683 5679 5676 5672 5668 5664 5661 5657 5653 5650 5646 5642 5639 5635 5631 5627 5623 5620 5616 5612 5608 5605 5601 5597 5593 5589 5585 5581 5577 5572 5567 5562 5557 5552 5547 5542 5537
5814 5812 5810 5808 5806 5804 5802 5800 5797 5795 5793 5790 5788 5785 5782 5779 5777 5775 5772 5768 5765 5763 5761 5758 5756 5754 5750 5747 5744 5740 5738 5735 5732 5729 5726 5723 5720 5717 5714 5711 5707 5704 5700 5697 5694 5692 5689 5685 5682 5678 5675 5671 5668 5664 5660 5657 5653 5649 5645 5641 5638 5634 5631 5626 5622 5619 5615 5611 5607 5603 5599 5596 5592 5588 5584 5579 5575 5571 5567 5563 5558 5552 5547 5543 5537 5532
5812 5810 5809 5806 5804 5802 5800 5798 5795 5793 5790 5788 5785 5782 5779 5776 5773 5771 5769 5766 5762 5759 5758 5754 5752 5752 5748 5744 5741 5737 5735 5732 5728 5726 5723 5720 5717 5713 5710 5707 5704 5700 5696 5693 5689 5687 5685 5682 5678 5674 5670 5667 5663 5659 5656 5653 5649 5645 5641 5637 5633 5629 5626 5622 5618 5614 5610 5607 5603 5599 5595 5590 5587 5583 5579 5575 5570 5566 5562 5557 5553 5548 5543 5537 5532 5527
5811 5809 5807 5804 5802 5800 5798 5795 5793 5790 5787 5785 5782 5779 5776 5773 5770 5767 5765 5762 5760 5757 5755 5751 5749 5750 5747 5741 5737 5734 5732 5729 5725 5722 5719 5716 5713 5710 5707 5703 5700 5696 5693 5689 5686 5682 5680 5678 5674 5670 5666 5662 5659 5655 5652 5648 5644 5640 5637 5632 5628 5624 5620 5617 5613 5610 5606 5602 5598 5594 5590 5586 5582 5578 5574 5570 5565 5561 5557 5552 5548 5543 5537 5532 5527 5521
5809 5807 5805 5802 5800 5798 5795 5792 5790 5787 5784 5781 5779 5775 5772 5770 5767 5764 5760 5758 5756 5753 5751 5747 5744 5746 5746 5739 5732 5730 5728 5725 5722 5719 5716 5712 5709 5706 5703 5700 5696 5692 5689 5685 5682 5678 5675 5672 5669 5665 5661 5657 5654 5650 5647 5643 5639 5636 5632 5628 5624 5619 5615 5612 5609 5605 5601 5597 5593 5589 5585 5581 5577 5573 5569 5565 5561 5556 5552 5547 5542 5538 5532 5527 5521 5516
5807 5805 5802 5800 5798 5795 5792 5789 5786 5784 5781 5778 5775 5772 5769 5766 5763 5760 5757 5754 5752 5749 5748 5744 5738 5739 5743 5738 5729 5725 5723 5721 5718 5715 5712 5708 5705 5702 5699 5695 5692 5688 5684 5681 5678 5674 5670 5667 5663 5660 5657 5653 5649 5645 5642 5638 5635 5631 5627 5623 5619 5614 5611 5607 5604 5600 5597 5593 5589 5585 5581 5577 5573 5569 5565 5561 5556 5551 5546 5542 5537 5532 5528 5522 5517 5511
5805 5802 5800 5797 5795 5792 5789 5786 5783 5780 5777 5774 5772 5768 5765 5763 5760 5757 5754 5751 5749 5746 5745 5743 5736 5733 5736 5734 5727 5723 5719 5716 5714 5711 5706 5703 5700 5698 5695 5691 5688 5683 5680 5677 5673 5670 5666 5662 5659 5655 5652 5648 5644 5640 5637 5633 5630 5626 5622 5618 5614 5609 5606 5602 5599 5596 5592 5588 5584 5580 5576 5572 5568 5564 5560 5556 5551 5547 5542 5537 5532 5527 5522 5518 5512 5506
5802 5800 5797 5794 5792 5789 5786 5783 5780 5777 5774 5771 5768 5765 5762 5759 5757 5754 5751 5748 5745 5743 5741 5739 5734 5729 5731 5729 5721 5719 5716 5711 5709 5705 5700 5698 5695 5693 5690 5686 5683 5680 5676 5672 5669 5665 5661 5657 5654 5650 5646 5643 5640 5636 5632 5628 5624 5621 5617 5613 5609 5605 5601 5598 5594 5591 5587 5583 5579 5576 5572 5567 5564 5560 5555 5550 5546 5541 5537 5532 5527 5522 5517 5512 5507 5501
5800 5797 5794 5791 5789 5786 5783 5780 5777 5773 5771 5768 5765 5762 5759 5756 5754 5751 5748 5745 5742 5740 5737 5735 5730 5726 5727 5725 5717 5712 5710 5706 5704 5700 5695 5692 5689 5687 5684 5681 5678 5675 5672 5668 5664 5660 5656 5652 5648 5645 5641 5637 5634 5631 5626 5623 5619 5615 5612 5608 5604 5600 5596 5593 5590 5586 5582 5578 5575 5571 5567 5563 5559 5555 5550 5546 5541 5537 5532 5527 5522 5517 5512 5507 5502 5496
5797 5794 5791 5788 5785 5783 5780 5777 5773 5770 5767 5764 5761 5758 5756 5753 5750 5748 5745 5741 5738 5736 5733 5731 5727 5722 5720 5721 5715 5708 5703 5700 5698 5694 5690 5687 5684 5681 5679 5676 5673 5671 5668 5664 5660 5656 5651 5647 5643 5639 5636 5632 5628 5625 5621 5617 5613 5610 5606 5603 5599 5594 5591 5588 5585 5581 5577 5573 5570 5566 5562 5558 5554 5550 5546 5541 5536 5532 5527 5522 5517 5512 5507 5502 5497 5491
5794 5791 5788 5786 5782 5779 5777 5774 5770 5767 5763 5760 5756 5753 5750 5748 5745 5742 5740 5737 5733 5731 5729 5726 5723 5719 5716 5715 5712 5705 5698 5694 5691 5688 5685 5682 5678 5676 5673 5670 5669 5666 5663 5659 5655 5651 5646 5641 5637 5634 5631 5627 5622 5619 5615 5612 5608 5604 5601 5597 5593 5589 5586 5583 5580 5576 5572 5569 5565 5561 5557 5553 5549 5545 5541 5536 5532 5527 5523 5518 5513 5508 5503 5498 5492 5487
5792 5789 5786 5783 5780 5776 5773 5770 5767 5764 5760 5756 5752 5748 5744 5741 5738 5737 5735 5731 5728 5726 5724 5722 5719 5716 5713 5710 5706 5700 5693 5688 5684 5681 5678 5676 5673 5670 5667 5665 5664 5661 5657 5653 5649 5645 5641 5636 5632 5629 5625 5622 5617 5613 5610 5606 5603 5599 5595 5592 5588 5584 5580 5577 5574 5571 5567 5563 5560 5556 5552 5548 5545 5540 5536 5531 5527 5523 5518 5513 5508 5503 5498 5493 5488 5482
5790 5787 5783 5779 5776 5773 5769 5766 5762 5759 5756 5752 5748 5743 5740 5735 5731 5730 5730 5727 5724 5721 5720 5718 5715 5712 5711 5706 5701 5695 5688 5683 5678 5674 5671 5669 5666 5662 5660 5658 5658 5655 5650 5646 5642 5639 5635 5631 5627 5624 5620 5616 5612 5608 5604 5601 5597 5594 5590 5586 5582 5578 5575 5572 5569 5565 5562 5558 5555 5551 5547 5543 5539 5535 5531 5526 5522 5518 5513 5509 5503 5498 5493 5488 5483 5478
5786 5783 5779 5775 5772 5769 5765 5762 5758 5754 5752 5749 5745 5740 5736 5732 5726 5724 5723 5720 5718 5716 5715 5714 5711 5708 5707 5702 5697 5690 5683 5678 5672 5667 5665 5663 5660 5656 5654 5652 5651 5648 5644 5639 5636 5632 5629 5625 5621 5618 5614 5610 5606 5603 5599 5596 5592 5589 5585 5581 5577 5573 5570 5567 5563 5560 5557 5553 5549 5546 5542 5538 5534 5530 5526 5521 5517 5513 5508 5504 5499 5494 5489 5483 5478 5473
5783 5780 5776 5772 5768 5765 5761 5758 5754 5750 5747 5744 5741 5736 5732 5728 5723 5719 5717 5715 5711 5708 5708 5708 5706 5705 5704 5698 5691 5685 5678 5671 5664 5660 5659 5658 5656 5653 5651 5648 5645 5641 5638 5633 5629 5626 5623 5619 5615 5611 5608 5604 5601 5597 5594 5590 5587 5584 5580 5576 5572 5568 5565 5562 5558 5555 5551 5548 5544 5540 5536 5533 5529 5525 5521 5516 5512 5508 5503 5499 5494 5489 5484 5479 5474 5468
5780 5778 5774 5768 5765 5761 5758 5754 5750 5745 5741 5738 5735 5731 5727 5723 5719 5713 5711 5710 5706 5700 5700 5701 5699 5699 5699 5693 5685 5678 5672 5666 5660 5656 5655 5654 5652 5650 5647 5643 5639 5636 5632 5628 5624 5620 5617 5614 5610 5606 5602 5599 5596 5592 5589 5585 5581 5578 5574 5570 5566 5563 5559 5556 5553 5549 5546 5542 5539 5535 5531 5527 5524 5519 5515 5511 5507 5503 5498 5494 5489 5485 5480 5475 5469 5464
5776 5776 5772 5765 5761 5757 5753 5750 5746 5741 5737 5732 5729 5725 5721 5719 5715 5709 5705 5703 5700 5694 5693 5695 5693 5693 5692 5687 5680 5674 5666 5661 5659 5656 5653 5649 5647 5644 5641 5638 5634 5630 5627 5623 5619 5615 5611 5608 5604 5601 5597 5594 5590 5587 5583 5580 5576 5573 5569 5565 5561 5557 5554 5551 5548 5544 5540 5537 5533 5529 5525 5522 5518 5514 5510 5506 5502 5498 5493 5489 5485 5480 5475 5470 5465 5460
5771 5771 5769 5762 5757 5752 5748 5745 5741 5737 5733 5728 5724 5720 5715 5712 5709 5705 5701 5696 5693 5688 5686 5687 5688 5690 5688 5679 5673 5669 5662 5658 5656 5654 5650 5645 5641 5638 5635 5632 5629 5626 5622 5618 5614 5610 5607 5603 5599 5595 5592 5588 5585 5581 5578 5574 5570 5567 5563 5559 5555 5552 5548 5545 5542 5538 5535 5531 5527 5523 5519 5516 5512 5509 5504 5500 5496 5492 5488 5484 5480 5475 5471 5466 5461 5455
5767 5765 5764 5759 5753 5748 5744 5740 5735 5730 5727 5723 5719 5715 5712 5708 5704 5702 5699 5695 5688 5682 5679 5678 5680 5686 5685 5675 5667 5664 5659 5654 5651 5649 5647 5642 5638 5634 5630 5626 5623 5620 5617 5612 5609 5605 5602 5598 5593 5590 5586 5583 5579 5575 5572 5568 5565 5561 5557 5553 5550 5546 5543 5539 5536 5532 5529 5525 5521 5517 5513 5510 5507 5503 5499 5495 5491 5487 5482 5479 5475 5471 5466 5461 5456 5451
5765 5761 5759 5755 5750 5744 5739 5735 5731 5726 5721 5718 5714 5710 5707 5704 5700 5696 5695 5693 5687 5681 5676 5672 5671 5678 5681 5672 5664 5661 5656 5651 5646 5643 5642 5640 5635 5630 5626 5621 5617 5614 5611 5607 5604 5600 5597 5593 5589 5585 5581 5577 5573 5570 5566 5563 5559 5554 5551 5547 5544 5540 5537 5533 5530 5526 5523 5519 5515 5511 5507 5505 5501 5497 5493 5490 5486 5481 5477 5473 5469 5466 5461 5457 5452 5446
5762 5758 5755 5751 5746 5741 5736 5732 5728 5724 5719 5714 5711 5707 5703 5700 5696 5691 5688 5688 5685 5681 5676 5669 5665 5672 5675 5668 5661 5658 5653 5648 5642 5638 5637 5635 5631 5627 5623 5618 5613 5609 5605 5601 5598 5595 5591 5587 5584 5580 5575 5571 5567 5564 5560 5556 5553 5549 5544 5541 5537 5534 5530 5527 5524 5520 5516 5512 5508 5504 5501 5499 5495 5492 5488 5484 5480 5476 5471 5468 5464 5461 5456 5452 5447 5442
5758 5755 5752 5748 5743 5739 5735 5730 5726 5722 5717 5712 5708 5705 5701 5698 5693 5689 5684 5681 5681 5679 5675 5667 5662 5666 5670 5664 5657 5654 5648 5644 5638 5634 5632 5629 5625 5621 5618 5614 5610 5605 5600 5595 5591 5588 5584 5580 5577 5573 5570 5566 5562 5558 5554 5550 5546 5543 5538 5534 5531 5527 5523 5520 5517 5513 5509 5506 5502 5498 5495 5493 5490 5486 5482 5479 5475 5470 5466 5463 5459 5455 5451 5447 5442 5437
5755 5751 5747 5744 5740 5736 5732 5727 5722 5719 5714 5709 5706 5703 5700 5696 5691 5687 5682 5678 5676 5675 5671 5664 5657 5659 5662 5659 5654 5650 5644 5639 5634 5630 5626 5622 5619 5616 5613 5609 5604 5600 5595 5591 5586 5581 5577 5573 5569 5566 5563 5560 5556 5552 5548 5544 5540 5536 5532 5528 5524 5521 5517 5513 5510 5506 5503 5499 5495 5492 5490 5487 5484 5481 5477 5473 5469 5465 5461 5458 5454 5450 5446 5442 5437 5433
5751 5746 5741 5737 5733 5730 5728 5723 5718 5715 5711 5706 5702 5699 5696 5693 5688 5685 5680 5674 5671 5670 5667 5660 5653 5652 5654 5652 5649 5645 5640 5635 5631 5626 5622 5617 5612 5610 5607 5604 5599 5595 5590 5586 5581 5577 5572 5567 5562 5559 5556 5553 5550 5546 5542 5538 5534 5529 5525 5521 5518 5514 5511 5507 5504 5500 5496 5493 5489 5486 5484 5482 5479 5475 5472 5468 5465 5460 5456 5453 5449 5445 5441 5437 5433 5428
5750 5744 5739 5733 5727 5723 5721 5717 5713 5711 5708 5704 5700 5696 5693 5690 5685 5681 5677 5672 5666 5664 5663 5657 5650 5647 5648 5646 5643 5640 5635 5630 5626 5623 5620 5614 5609 5604 5601 5598 5594 5589 5585 5581 5576 5572 5567 5562 5557 5553 5550 5546 5542 5539 5535 5532 5528 5524 5519 5515 5512 5509 5505 5502 5498 5495 5491 5487 5484 5481 5479 5476 5473 5470 5467 5463 5459 5456 5452 5448 5444 5440 5436 5432 5428 5424
5749 5744 5739 5734 5728 5723 5720 5716 5711 5707 5705 5702 5700 5696 5691 5687 5683 5678 5674 5669 5664 5661 5660 5657 5649 5643 5643 5641 5637 5634 5629 5624 5621 5618 5615 5611 5606 5602 5598 5593 5588 5583 5579 5575 5571 5567 5563 5559 5554 5549 5544 5540 5536 5532 5529 5525 5521 5518 5514 5510 5507 5503 5500 5496 5492 5489 5485 5481 5478 5476 5473 5470 5467 5464 5461 5458 5454 5451 5447 5443 5439 5435 5431 5427 5423 5419
5747 5743 5740 5735 5730 5724 5720 5716 5711 5706 5703 5700 5697 5694 5690 5685 5681 5677 5672 5667 5662 5657 5655 5654 5649 5643 5640 5637 5633 5629 5624 5619 5616 5613 5609 5605 5601 5597 5593 5589 5584 5579 5574 5570 5565 5560 5557 5553 5549 5544 5539 5535 5531 5527 5523 5519 5515 5512 5508 5504 5501 5497 5494 5490 5486 5483 5480 5476 5473 5471 5468 5464 5461 5458 5455 5452 5449 5446 5442 5438 5434 5430 5426 5422 5419 5415
5744 5741 5738 5735 5730 5724 5718 5714 5710 5706 5702 5698 5694 5690 5687 5683 5679 5675 5670 5665 5660 5655 5651 5649 5646 5641 5636 5633 5629 5624 5618 5613 5610 5606 5602 5598 5594 5591 5587 5584 5580 5575 5570 5566 5560 5555 5550 5546 5542 5538 5534 5530 5526 5522 5518 5514 5510 5506 5502 5498 5495 5491 5488 5484 5481 5478 5474 5472 5469 5465 5462 5459 5456 5453 5450 5447 5444 5440 5437 5433 5429 5425 5421 5418 5414 5410
5741 5737 5734 5732 5729 5724 5717 5713 5708 5704 5700 5696 5692 5688 5685 5681 5676 5671 5667 5662 5657 5653 5648 5643 5640 5637 5633 5628 5624 5619 5613 5608 5604 5600 5596 5592 5588 5585 5581 5577 5573 5569 5564 5560 5556 5551 5546 5541 5536 5532 5528 5524 5520 5516 5512 5509 5505 5500 5496 5493 5489 5486 5482 5479 5476 5473 5470 5467 5464 5460 5457 5455 5451 5448 5445 5442 5439 5435 5432 5428 5424 5420 5416 5412 5409 5405
5737 5734 5730 5728 5726 5722 5716 5711 5705 5700 5696 5693 5690 5686 5682 5678 5673 5668 5663 5658 5653 5649 5644 5639 5635 5632 5628 5624 5619 5615 5609 5604 5600 5596 5591 5587 5583 5579 5575 5571 5566 5562 5558 5554 5550 5546 5541 5537 5532 5527 5523 5519 5515 5510 5506 5503 5499 5494 5490 5487 5483 5480 5477 5474 5471 5467 5464 5461 5458 5455 5452 5449 5446 5443 5439 5436 5433 5430 5427 5423 5420 5416 5411 5407 5404 5400
5733 5730 5726 5723 5721 5718 5713 5709 5704 5698 5693 5689 5685 5682 5678 5673 5669 5664 5659 5655 5650 5645 5640 5635 5630 5626 5623 5619 5616 5612 5607 5602 5597 5592 5587 5583 5579 5573 5569 5565 5560 5556 5552 5548 5544 5540 5536 5531 5527 5523 5518 5514 5510 5505 5500 5497 5493 5489 5484 5480 5477 5473 5471 5468 5465 5462 5459 5455 5452 5449 5446 5443 5441 5438 5434 5430 5427 5424 5421 5418 5414 5411 5406 5402 5398 5395
5729 5726 5722 5718 5716 5714 5710 5706 5701 5696 5690 5686 5681 5677 5673 5669 5666 5662 5657 5652 5647 5641 5635 5630 5626 5623 5619 5615 5611 5608 5604 5598 5593 5587 5581 5576 5573 5568 5563 5559 5554 5550 5546 5541 5537 5534 5530 5526 5521 5517 5512 5509 5504 5500 5495 5491 5487 5483 5479 5474 5471 5468 5465 5462 5459 5456 5453 5450 5447 5444 5441 5438 5435 5432 5428 5425 5421 5418 5415 5412 5409 5406 5401 5397 5393 5390
5725 5721 5718 5713 5710 5708 5705 5701 5698 5693 5687 5681 5676 5672 5669 5666 5663 5659 5654 5649 5643 5637 5632 5627 5622 5618 5613 5609 5604 5600 5596 5592 5587 5583 5576 5570 5565 5561 5557 5553 5548 5543 5539 5535 5530 5527 5523 5519 5516 5511 5506 5502 5499 5495 5491 5486 5482 5478 5473 5469 5465 5462 5459 5456 5453 5450 5447 5444 5441 5438 5435 5432 5429 5426 5423 5419 5416 5412 5409 5407 5404 5400 5396 5392 5389 5385
5722 5717 5714 5710 5705 5701 5698 5694 5691 5688 5684 5677 5671 5667 5664 5660 5657 5652 5649 5646 5640 5633 5628 5624 5618 5612 5607 5602 5597 5592 5588 5585 5582 5577 5570 5563 5559 5554 5550 5545 5541 5536 5531 5527 5523 5519 5516 5512 5508 5504 5500 5495 5491 5488 5485 5481 5477 5473 5468 5463 5459 5456 5452 5450 5447 5445 5441 5439 5436 5432 5429 5426 5423 5420 5417 5414 5411 5407 5403 5401 5398 5395 5391 5387 5384 5380
5717 5713 5709 5705 5701 5696 5692 5688 5683 5681 5680 5675 5667 5661 5657 5652 5647 5642 5639 5640 5636 5627 5621 5617 5612 5607 5602 5596 5591 5587 5582 5579 5577 5573 5565 5557 5551 5547 5541 5536 5532 5528 5523 5518 5514 5510 5506 5503 5500 5496 5492 5488 5483 5478 5476 5473 5469 5466 5462 5457 5453 5450 5446 5443 5441 5438 5435 5432 5429 5426 5423 5420 5417 5414 5411 5409 5406 5402 5398 5394 5392 5389 5385 5382 5379 5375
5714 5709 5704 5699 5696 5691 5686 5683 5679 5675 5673 5668 5659 5652 5649 5643 5638 5633 5628 5629 5629 5622 5614 5610 5605 5600 5595 5590 5585 5580 5575 5571 5570 5567 5560 5552 5546 5540 5534 5528 5523 5519 5514 5509 5504 5500 5496 5492 5490 5486 5482 5478 5474 5469 5466 5464 5461 5457 5454 5450 5446 5443 5440 5437 5434 5430 5427 5424 5421 5418 5415 5413 5410 5408 5405 5402 5400 5397 5393 5389 5387 5384 5380 5377 5374 5371
5711 5705 5700 5694 5691 5686 5680 5676 5672 5667 5666 5663 5654 5647 5643 5637 5633 5627 5620 5618 5618 5613 5606 5601 5596 5591 5586 5582 5577 5572 5566 5562 5560 5558 5552 5546 5541 5534 5528 5523 5516 5509 5505 5500 5495 5491 5486 5482 5480 5477 5473 5469 5465 5460 5456 5454 5451 5448 5445 5441 5437 5434 5432 5429 5426 5423 5420 5417 5414 5410 5407 5404 5402 5400 5398 5396 5394 5391 5387 5383 5381 5378 5375 5372 5369 5366
5707 5702 5697 5691 5686 5682 5676 5671 5666 5661 5660 5658 5651 5642 5637 5631 5626 5621 5613 5609 5608 5603 5595 5590 5585 5580 5576 5571 5567 5562 5556 5549 5546 5545 5541 5536 5532 5526 5520 5515 5509 5502 5497 5492 5486 5480 5476 5471 5469 5467 5464 5460 5456 5451 5447 5444 5442 5439 5436 5432 5429 5426 5423 5421 5419 5415 5412 5409 5406 5403 5399 5396 5394 5392 5390 5388 5387 5384 5381 5377 5376 5373 5370 5367 5364 5361
5703 5698 5693 5688 5682 5677 5671 5667 5663 5658 5655 5652 5645 5637 5631 5625 5620 5614 5606 5601 5600 5596 5589 5583 5577 5571 5565 5560 5556 5552 5546 5538 5531 5528 5525 5521 5518 5514 5509 5503 5499 5493 5487 5482 5477 5471 5465 5461 5457 5455 5452 5449 5444 5440 5437 5434 5432 5429 5426 5423 5420 5417 5415 5412 5410 5408 5405 5402 5398 5395 5392 5389 5386 5384 5382 5380 5378 5377 5374 5371 5369 5367 5364 5362 5360 5357
5699 5693 5688 5683 5678 5672 5667 5661 5658 5654 5651 5645 5638 5631 5624 5618 5613 5608 5600 5595 5592 5588 5582 5576 5570 5562 5555 5550 5545 5541 5536 5529 5522 5515 5510 5505 5501 5498 5495 5490 5486 5481 5476 5470 5465 5460 5454 5449 5446 5443 5440 5437 5433 5428 5425 5422 5421 5418 5416 5413 5411 5408 5405 5403 5402 5400 5397 5394 5391 5387 5385 5382 5379 5376 5374 5372 5370 5368 5367 5365 5363 5360 5358 5357 5355 5352
5692 5686 5682 5677 5671 5667 5663 5656 5651 5648 5643 5637 5631 5625 5619 5612 5606 5600 5595 5590 5585 5579 5573 5568 5562 5555 5547 5542 5537 5531 5525 5520 5513 5506 5500 5494 5488 5483 5479 5474 5470 5466 5462 5458 5454 5449 5443 5437 5434 5431 5429 5426 5422 5418 5413 5410 5408 5406 5404 5402 5400 5398 5396 5394 5393 5392 5389 5386 5383 5379 5376 5374 5372 5369 5366 5364 5362 5361 5359 5358 5356 5354 5353 5352 5350 5347
5688 5680 5675 5670 5665 5660 5656 5651 5646 5641 5635 5629 5623 5617 5611 5606 5598 5591 5586 5582 5576 5569 5563 5558 5552 5545 5538 5532 5526 5520 5514 5508 5502 5495 5489 5483 5477 5471 5466 5461 5455 5450 5446 5442 5439 5436 5431 5426 5422 5419 5416 5414 5411 5407 5402 5398 5396 5394 5392 5391 5389 5387 5386 5384 5384 5384 5382 5378 5375 5371 5369 5366 5364 5362 5359 5357 5355 5353 5352 5350 5349 5348 5347 5345 5344 5341
5684 5676 5669 5665 5661 5655 5650 5647 5643 5638 5632 5625 5618 5611 5606 5600 5592 5584 5577 5571 5565 5558 5552 5545 5540 5534 5526 5518 5510 5504 5498 5491 5486 5480 5474 5468 5464 5458 5452 5447 5441 5435 5431 5427 5423 5420 5417 5412 5409 5407 5405 5402 5399 5396 5392 5388 5384 5382 5381 5379 5377 5376 5375 5374 5375 5375 5373 5371 5367 5364 5361 5359 5357 5354 5352 5350 5347 5346 5345 5344 5343 5342 5340 5338 5337 5336
5679 5672 5665 5662 5659 5654 5649 5645 5639 5634 5630 5623 5614 5606 5599 5592 5585 5578 5570 5562 5554 5547 5540 5533 5526 5519 5513 5504 5496 5488 5482 5475 5469 5464 5458 5452 5448 5443 5438 5433 5428 5422 5418 5414 5411 5407 5403 5399 5396 5393 5391 5389 5387 5385 5382 5378 5374 5371 5369 5369 5367 5364 5364 5364 5365 5365 5363 5361 5359 5356 5353 5351 5349 5347 5345 5343 5341 5339 5338 5337 5336 5335 5334 5332 5331 5330
5673 5667 5661 5657 5654 5649 5646 5642 5635 5628 5624 5617 5607 5599 5592 5584 5576 5569 5561 5553 5544 5536 5529 5522 5513 5506 5500 5492 5483 5475 5468 5462 5455 5449 5445 5439 5434 5430 5425 5419 5415 5410 5405 5401 5398 5393 5389 5386 5383 5379 5376 5374 5373 5371 5370 5368 5366 5362 5358 5357 5356 5354 5353 5355 5356 5356 5354 5352 5350 5347 5345 5344 5342 5340 5338 5336 5334 5333 5332 5331 5330 5329 5328 5327 5326 5324
5667 5663 5657 5651 5646 5640 5635 5631 5626 5621 5615 5607 5597 5591 5584 5575 5568 5561 5552 5543 5534 5525 5518 5510 5502 5495 5488 5481 5472 5463 5457 5451 5444 5437 5433 5427 5421 5415 5410 5404 5399 5394 5390 5386 5382 5377 5373 5370 5367 5364 5361 5358 5358 5357 5356 5356 5356 5353 5349 5347 5345 5343 5344 5345 5347 5346 5345 5343 5341 5339 5337 5336 5334 5332 5331 5329 5328 5327 5326 5325 5324 5323 5323 5322 5320 5319
5659 5655 5650 5644 5639 5633 5626 5620 5616 5613 5609 5600 5589 5581 5572 5563 5556 5549 5542 5533 5524 5514 5506 5499 5491 5484 5476 5469 5461 5452 5445 5440 5434 5426 5419 5413 5406 5400 5395 5389 5384 5379 5375 5371 5366 5362 5358 5355 5352 5350 5348 5345 5343 5342 5341 5342 5343 5342 5339 5336 5333 5332 5334 5336 5337 5337 5335 5334 5332 5330 5329 5328 5327 5325 5324 5323 5322 5321 5320 5319 5319 5318 5318 5316 5315 5314
5653 5647 5641 5635 5631 5626 5619 5612 5606 5602 5600 5595 5585 5575 5566 5555 5544 5536 5529 5520 5511 5502 5493 5486 5480 5474 5465 5457 5449 5440 5432 5427 5421 5413 5405 5398 5392 5386 5381 5376 5371 5365 5360 5356 5351 5347 5343 5341 5339 5337 5334 5332 5329 5327 5326 5328 5329 5329 5328 5325 5321 5322 5325 5327 5328 5327 5326 5325 5324 5322 5321 5320 5319 5318 5317 5317 5316 5315 5314 5314 5313 5313 5312 5311 5310 5309
5648 5642 5635 5628 5621 5615 5608 5601 5592 5582 5577 5573 5566 5557 5548 5539 5528 5519 5511 5503 5495 5487 5478 5470 5464 5459 5453 5445 5437 5428 5419 5413 5407 5399 5391 5384 5377 5372 5367 5362 5358 5353 5348 5343 5337 5333 5329 5327 5325 5323 5320 5318 5315 5312 5310 5310 5312 5313 5313 5311 5309 5310 5314 5317 5318 5318 5317 5316 5315 5314 5313 5312 5312 5311 5311 5310 5310 5309 5308 5308 5308 5308 5307 5306 5305 5304
5640 5633 5626 5617 5610 5603 5595 5588 5580 5570 5561 5554 5547 5539 5531 5522 5511 5502 5494 5486 5479 5472 5465 5456 5448 5442 5437 5431 5425 5416 5406 5398 5392 5385 5378 5371 5365 5360 5354 5350 5345 5340 5336 5331 5326 5320 5317 5315 5313 5311 5308 5304 5301 5298 5296 5294 5294 5295 5295 5294 5295 5297 5301 5304 5307 5308 5309 5308 5306 5305 5305 5305 5304 5304 5304 5304 5303 5303 5303 5302 5303 5302 5302 5301 5300 5299